{"data":{"norad_id":45024,"epoch":"2026-09-20T04:24:27.199296Z","epoch_age_seconds":89098,"freshness":"FRESH","line1":"1 45024U 20004A   26263.18364814  .00000522  00000+0  66600-4 0  9995","line2":"2 45024  86.3888  72.8035 0015021  35.6023 324.6196 14.79220808359965","mean_motion":14.79220808,"eccentricity":0.0015021,"inclination_deg":86.3888,"raan_deg":72.8035,"arg_perigee_deg":35.6023,"mean_anomaly_deg":324.6196,"bstar":6.66e-5,"rev_number":35996,"period_min":97.348549466862,"perigee_km":621.25514136512,"apogee_km":642.3143482709,"semimajor_km":7009.921744818,"source":"CELESTRAK","updated_at":"2026-09-20T09:00:14.576869Z"}}